SCP
-0 -0 -0 -0 -0 -0 -0 -0 -0 -0 -0 -0 -0 -0 -0 -0 -0 -0 -0 -0 -0 -0 -0 -0 0 -0 -0 0 0 0 0 0 0 0 0 -0 -0 0 0 0 0 -0 0 0 -0 -0 -0
-0 -0 -0 -0 -0 -0 -0 -0 -0 -0 -0 -0 -0 -0 -0 -0 -0 -0 -0 -0 -0 -0 -0 0 -0 -0 -0 0 -0 0 0 0 0 0 0 0 0 0 0 0 0 0 0 0 0 0 0
-0 -0 -0 -0 -0 -0 -0 -0 -0 -0 -0 -0 -0 -0 -0 -0 -0 -0 -0 -0 -0 -0 -0 -0 -0 -0 0 -0 -0 0 0 0 0 0 0 0 0 0 0 0 0 0 0 0 0 0 0
-0 -0 -0 -0 -0 -0 -0 -0 -0 -0 -0 -0 -0 -0 -0 -0 -0 -0 -0 -0 -0 -0 -0 -0 -0 -0 0 0 0 0 -0 0 0 0 0 0 0 0 0 0 0 0 0 -0 -0 -0 -0
-0 -0 -0 -0 -0 -0 -0 -0 -0 -0 -0 -0 -0 -0 -0 -0 -0 -0 -0 -0 -0 -0 0 0 -0 -0 0 0 0 -0 -0 0 0 0 0 0 0 0 0 0 0 0 0 -0 -0 0 -0
-0 -0 -0 -0 -0 -0 -0 -0 -0 -0 -0 -0 -0 -0 -0 -0 -0 -0 -0 -0 -0 0 0 -0 0 0 -0 0 -0 0 0 0 0 0 0 0 0 0 0 0 0 -0 0 -0 0 0 0
-0 -0 -0 -0 -0 -0 -0 -0 -0 -0 -0 -0 -0 -0 -0 -0 -0 -0 -0 0 0 0 0 -0 -0 -0 0 -0 0 0 0 0 0 0 0 0 0 0 0 0 0 0 0 0 0 0 0
0 -0 -0 -0 -0 -0 -0 -0 -0 -0 -0 -0 -0 -0 -0 -0 -0 -0 0 0 0 -0 -0 -0 -0 0 0 0 0 0 0 0 0 0 0 0 0 -0 0 0 0 0 0 0 0 0 0
0 0 0 0 -0 -0 -0 -0 -0 -0 -0 -0 -0 -0 -0 -0 -0 0 0 0 0 -0 0 -0 0 -0 0 0 0 0 0 0 0 0 0 0 0 0 0 0 0 0 0 0 0 0 0
0 0 0 0 0 0 -0 -0 -0 -0 -0 -0 -0 -0 -0 -0 0 0 0 0 0 -0 0 -0 0 0 0 0 0 0 0 0 -0 0 0 0 0 0 0 0 0 0 0 0 0 0 0
0 0 0 0 0 0 0 -0 -0 -0 -0 -0 -0 -0 -0 -0 0 0 0 0 0 0 0 0 0 0 0 0 0 0 0 0 0 0 0 0 0 0 0 0 0 0 0 0 0 0 0
0 0 0 0 0 0 0 0 -0 -0 -0 -0 -0 -0 -0 -0 0 0 0 0 0 0 0 -0 -0 0 0 0 0 0 0 0 0 0 0 0 0 0 0 0 0 0 0 0 0 -0 0
0 0 0 0 0 0 0 0 -0 -0 -0 -0 -0 -0 0 0 0 0 0 0 0 0 0 0 0 0 0 0 0 0 0 0 0 0 0 0 0 0 0 0 0 0 0 0 0 0 0
0 0 0 0 0 0 0 0 -0 -0 -0 -0 -0 -0 -0 0 0 0 0 0 0 0 0 0 0 0 -0 0 -0 0 0 0 0 0 0 0 0 0 0 0 0 0 0 0 0 0 0
0 0 0 0 0 0 0 0 0 -0 -0 -0 -0 0 0 0 0 0 0 0 0 0 0 0 0 0 -0 -0 -0 0 0 0 0 0 0 0 0 0 0 0 0 0 0 0 0 0 0
0 0 0 0 0 0 0 0 0 0 -0 -0 0 0 0 -0 0 0 0 0 0 0 0 0 0 0 0 0 0 -0 0 0 0 0 0 0 0 0 0 0 0 0 0 0 0 0 0
0 0 0 0 0 0 0 0 0 0 0 0 0 0 0 0 0 0 0 0 0 0 0 0 0 0 0 0 0 0 0 0 0 0 0 0 0 0 0 0 0 0 0 0 0 0 0
0 0 0 0 0 0 0 0 0 0 0 -0 0 0 0 0 0 0 0 0 0 0 0 0 -0 0 0 0 0 0 0 0 0 0 0 0 0 0 0 0 0 0 0 0 0 0 0
0 0 0 0 0 0 0 0 0 0 0 0 0 0 0 0 0 0 0 0 0 0 0 0 0 0 0 0 0 0 0 0 0 0 0 0 0 0 0 0 0 0 0 0 0 0 0
0 0 0 0 0 0 0 0 0 0 0 0 0 0 0 0 0 0 0 0 0 0 0 0 0 0 0 0 0 0 0 0 0 0 0 0 0 0 0 0 0 0 0 0 0 0 0
0 0 0 0 0 0 0 0 0 0 0 0 0 0 0 0 0 0 0 0 0 0 0 0 0 0 0 0 0 0 0 0 0 0 0 0 0 0 0 0 0 0 0 0 0 0 0
0 0 0 0 0 0 0 0 0 0 0 0 0 0 0 0 0 0 0 0 0 0 0 0 0 0 0 0 0 0 0 0 0 0 0 0 0 0 0 0 0 0 0 0 0 0 0
0 0 0 0 0 0 0 0 0 0 0 0 0 0 0 0 0 0 0 0 0 0 0 0 0 0 0 0 0 0 0 0 0 0 0 0 0 0 0 0 0 0 0 0 0 0 0
0 0 0 0 0 0 0 0 0 0 0 0 0 0 0 0 0 0 0 0 0 0 0 0 0 0 0 0 0 0 0 0 0 0 0 0 0 0 0 0 0 0 0 0 0 0 0
0 0 0 0 0 0 0 0 0 0 0 0 0 0 0 0 0 0 0 0 0 0 0 0 0 0 0 0 0 0 0 0 0 0 0 0 0 0 0 0 0 0 0 0 0 0 0
0 0 0 0 0 0 0 0 0 0 0 0 0 0 0 0 0 0 0 0 0 0 0 0 0 0 0 0 0 0 0 0 0 0 0 0 0 0 0 0 0 0 0 0 0 0 0
0 0 0 0 0 0 0 0 0 0 0 0 0 0 0 0 0 0 0 0 0 0 0 0 0 0 0 0 0 0 0 0 0 0 0 0 0 0 0 0 0 0 0 0 0 0 0
0 0 0 0 0 0 0 0 0 0 0 0 0 0 0 0 0 0 0 0 0 0 0 0 0 0 0 0 0 0 0 0 0 0 0 0 0 0 0 0 0 0 0 0 0 0 0
0 0 0 0 0 0 0 0 0 0 0 0 0 0 0 0 0 0 0 0 0 0 0 0 0 0 0 0 0 0 0 0 0 0 0 0 0 0 0 0 0 0 0 0 0 0 0
Wind_Speed_500mb
32 33 34 34 35 35 36 37 39 40 41 42 43 43 43 44 44 44 42 38 39 34 32 28 20 16 11 9 13 7 6 17 22 27 34 33 24 20 9 8 12 11 21 30 36 46 20
34 35 35 36 36 37 38 39 40 42 43 43 44 45 44 45 45 45 42 39 36 35 33 22 17 10 6 7 3 3 8 16 25 31 36 36 18 8 19 8 3 22 36 45 8 4 9
35 36 37 37 38 38 39 40 41 42 44 45 45 46 45 45 45 44 41 37 33 36 25 19 11 8 14 18 6 5 4 10 20 29 35 22 9 21 16 12 23 22 13 19 8 7 8
37 37 38 39 40 41 41 43 44 44 46 47 48 48 48 46 45 43 39 34 31 27 17 7 4 11 13 1 15 11 12 21 21 23 14 11 19 13 15 20 18 12 8 9 16 23 18
37 38 40 41 42 42 43 43 44 44 46 48 48 49 49 46 44 41 34 28 28 14 5 0 1 8 9 8 29 11 20 22 11 3 7 11 7 4 5 8 11 13 5 12 19 17 11
35 37 38 40 41 42 43 44 45 46 47 48 49 49 48 45 43 39 23 27 11 7 6 13 16 13 17 31 32 21 10 12 7 6 9 2 4 7 9 10 6 10 5 9 10 17 3
36 38 41 42 42 43 44 45 46 47 48 48 49 50 48 44 39 32 17 16 16 3 30 21 15 23 23 7 33 32 12 18 22 14 6 3 9 10 22 18 17 9 1 8 12 13 6
37 38 40 42 44 45 46 47 48 48 49 50 50 51 49 42 34 15 18 15 16 23 23 37 37 49 44 19 16 35 21 21 14 11 4 10 15 24 8 7 10 14 13 12 14 13 4
37 39 40 41 43 45 47 48 49 50 50 51 51 51 50 42 21 5 18 18 24 20 10 28 29 43 30 23 40 37 38 33 10 8 11 13 15 16 13 12 12 10 14 12 15 10 9
39 40 41 42 44 46 48 49 50 51 51 51 52 50 49 44 9 15 11 11 17 27 8 14 11 15 30 21 7 36 43 30 9 20 10 13 24 14 13 14 16 7 8 5 10 5 6
39 40 42 43 46 49 50 51 52 52 52 51 50 49 45 43 35 16 10 9 13 9 6 8 13 17 25 30 5 32 50 44 17 10 6 17 11 13 12 16 9 15 4 7 3 6 6
41 42 44 45 46 49 52 54 54 54 52 53 49 46 47 41 32 4 8 12 6 9 9 7 15 13 13 18 13 11 58 34 15 9 7 19 18 9 14 7 11 10 10 14 10 6 9
42 44 46 47 48 49 51 55 57 57 54 54 50 42 44 37 20 9 11 6 8 6 12 3 8 11 14 11 9 11 19 14 9 3 8 14 12 9 10 3 12 13 14 8 9 8 11
45 45 46 48 49 51 52 54 57 58 56 57 49 44 37 29 10 13 12 8 3 9 5 12 9 12 16 12 12 18 16 13 12 9 3 3 15 7 6 13 15 11 17 12 10 6 10
48 48 47 49 50 51 53 54 56 58 55 58 50 41 25 9 12 15 8 5 11 8 8 17 8 12 8 14 12 11 18 23 19 18 14 7 11 18 26 10 17 4 5 13 13 2 6
47 48 49 48 49 50 51 54 56 56 53 55 50 38 8 22 15 12 8 9 9 9 21 6 10 8 6 8 6 9 18 10 13 22 24 11 3 10 11 14 10 8 9 6 6 8 6
47 46 47 47 48 48 48 50 54 55 51 46 39 17 12 17 18 5 5 12 11 32 36 6 6 6 6 5 5 5 16 5 3 8 20 10 7 10 9 6 0 11 8 12 10 8 10
46 45 44 45 46 45 45 46 48 54 49 37 18 8 17 33 4 3 5 9 10 36 53 6 2 1 6 5 10 9 7 8 19 6 8 3 10 5 8 5 6 7 4 9 10 5 0
46 44 42 42 42 43 41 40 41 45 49 51 36 15 20 20 4 6 13 14 20 19 16 6 8 8 8 5 5 4 6 16 23 9 7 1 5 5 16 13 14 10 9 9 10 6 7
45 41 40 39 39 41 38 37 35 34 37 35 14 7 10 3 4 3 9 11 12 26 5 8 5 8 11 7 8 1 4 10 14 12 13 11 7 9 12 7 6 6 10 7 9 6 7
37 35 37 36 35 39 34 34 31 28 27 24 6 6 13 8 8 13 7 7 10 12 17 7 7 7 4 3 8 10 12 7 14 8 9 9 7 4 2 2 3 2 10 5 6 7 7
33 34 31 32 34 38 36 32 30 23 18 6 9 11 19 19 24 11 7 6 5 8 7 6 13 19 23 11 7 1 2 6 3 8 6 7 4 4 12 13 15 9 14 12 9 3 6
33 29 32 31 35 38 38 32 27 23 12 4 6 6 6 13 16 7 6 13 18 16 22 20 15 12 16 7 16 16 12 4 2 4 4 7 9 5 3 9 9 10 12 9 13 8 5
33 29 30 31 37 37 38 29 18 18 17 9 6 11 6 7 6 6 18 20 23 32 2 14 24 12 5 11 8 5 7 7 7 4 8 8 8 5 4 8 3 8 16 30 33 19 23
34 33 26 33 33 34 33 27 13 11 16 11 6 2 5 6 12 15 31 16 32 25 7 10 9 15 8 12 8 10 9 8 12 13 13 13 10 5 8 7 9 2 4 2 9 5 7
34 32 27 28 29 29 33 25 11 10 16 9 14 3 7 6 6 16 14 15 6 9 13 8 16 9 4 9 7 5 7 9 7 4 8 9 11 10 6 9 14 8 5 9 14 7 9
35 31 29 24 24 25 28 19 12 8 14 10 20 3 4 9 10 14 8 9 12 11 5 7 13 7 8 6 4 5 8 5 6 9 9 6 3 13 6 7 10 7 6 5 9 10 32
30 31 28 25 19 25 24 17 11 9 14 15 24 9 7 9 43 30 22 10 14 12 3 15 5 14 8 6 7 8 7 9 7 8 12 14 13 8 5 4 14 17 8 5 18 30 32
26 32 30 29 22 22 24 17 11 12 18 17 18 18 15 19 22 15 25 30 23 11 15 10 3 2 3 3 1 1 4 4 2 7 10 2 11 10 13 10 3 11 32 43 37 38 22
Wind_Direction_500mb
355 355 354 354 351 352 351 349 346 345 344 342 340 338 336 333 333 332 333 333 329 325 322 318 312 315 312 275 259 273 272 197 190 199 188 173 189 201 226 215 308 214 275 293 276 256 239
354 352 351 351 350 349 349 348 346 343 342 341 339 336 335 333 331 329 331 332 327 322 317 305 311 323 270 263 197 245 256 200 193 188 180 186 195 221 281 294 188 288 304 302 252 214 233
351 350 349 349 349 348 348 346 344 342 339 338 338 336 334 332 330 328 329 330 325 322 314 291 297 298 262 236 199 267 273 186 182 179 172 191 287 262 302 307 325 301 336 329 319 347 298
348 348 347 348 348 346 346 345 342 341 338 338 337 336 334 333 330 327 329 328 325 321 314 273 275 288 252 213 214 212 161 156 149 167 216 297 324 265 225 312 348 348 52 7 299 351 300
348 349 348 348 348 347 345 343 340 339 338 337 337 336 334 334 331 327 333 329 322 326 338 120 281 289 256 195 195 184 163 140 123 262 284 318 330 51 327 61 7 7 286 324 320 335 274
349 348 348 349 347 346 346 344 343 342 340 339 338 336 335 336 333 328 349 339 353 305 296 277 255 295 218 210 191 191 158 183 191 178 233 172 34 53 34 69 213 259 323 295 284 292 277
351 349 348 347 346 345 345 345 344 344 341 340 338 337 336 337 334 329 11 25 9 339 316 259 274 245 291 223 204 202 201 224 235 193 163 238 80 201 213 190 215 222 312 283 269 264 269
347 347 346 344 343 343 344 344 343 343 341 338 338 337 336 339 333 335 3 25 8 329 299 286 261 260 257 260 227 182 206 207 165 200 154 14 230 228 232 263 247 241 254 265 278 273 57
345 345 344 342 342 341 341 341 341 340 340 337 336 337 335 341 334 6 3 33 13 349 296 289 240 235 236 217 193 187 208 204 181 199 191 173 238 203 188 254 253 227 186 223 232 323 326
342 342 342 342 341 341 340 339 339 338 338 336 333 337 334 339 354 334 49 20 8 338 41 275 198 224 221 172 241 198 199 193 205 211 195 222 264 226 230 227 179 186 214 300 332 27 243
339 339 339 340 340 339 339 338 338 337 335 334 330 333 328 328 322 320 303 316 319 337 7 165 169 175 184 176 198 193 204 200 213 225 127 252 298 225 227 203 154 228 205 246 206 61 64
338 337 337 337 337 337 337 337 336 336 335 330 327 331 320 321 320 287 298 277 326 50 261 223 168 153 130 202 240 149 186 203 248 197 217 249 258 235 210 178 176 141 64 39 44 57 6
335 335 334 334 334 335 335 334 334 333 334 327 326 325 312 307 305 269 328 327 50 155 303 195 191 144 169 170 227 168 172 209 177 99 317 325 296 279 230 108 17 79 60 7 357 15 224
330 330 330 331 332 333 334 334 332 332 332 325 326 323 305 299 253 226 245 59 205 260 275 300 161 149 180 188 236 172 152 200 259 125 88 235 322 192 203 166 179 182 144 151 190 201 257
328 327 327 327 328 330 332 332 333 332 334 326 329 329 314 170 167 167 148 106 214 237 335 325 3 147 250 216 194 155 182 201 202 170 167 192 267 284 159 145 127 194 178 180 108 321 74
324 324 324 325 325 326 329 330 332 332 336 331 332 336 63 152 133 146 81 233 259 293 319 339 52 48 75 349 22 176 193 231 196 197 160 219 274 335 29 71 29 138 171 68 9 127 182
320 322 322 322 322 324 327 330 332 332 338 337 334 331 142 171 159 181 171 238 284 285 299 353 28 343 32 15 235 280 212 21 138 130 142 155 109 296 39 80 194 352 357 60 116 116 159
316 318 319 320 320 322 326 330 333 334 339 339 352 330 145 164 225 210 196 215 294 295 303 289 110 296 19 8 352 34 23 30 343 145 107 22 132 137 205 262 245 166 9 118 113 237 95
313 314 317 318 320 320 323 327 333 337 342 348 336 290 208 244 189 268 288 287 287 280 254 93 30 35 28 323 68 35 30 9 39 61 130 256 28 49 341 358 6 48 16 48 102 86 195
313 319 317 317 317 316 321 324 328 333 334 342 336 341 318 222 98 44 347 290 312 331 105 116 111 46 38 354 4 327 117 24 35 61 72 98 81 140 185 177 211 334 331 64 97 105 208
307 317 326 326 323 320 324 321 323 326 329 334 327 290 5 323 331 329 283 273 317 351 339 82 37 23 264 333 41 4 12 28 20 23 36 82 95 60 99 151 344 271 297 344 141 181 156
308 315 316 319 323 325 325 322 321 323 330 346 357 357 344 302 305 341 312 286 290 318 357 334 93 66 64 80 40 294 172 39 53 326 65 14 171 102 355 20 22 324 297 295 259 153 129
316 314 316 316 317 317 321 320 323 325 325 289 342 290 316 298 328 355 41 315 318 301 47 52 137 97 60 357 338 310 318 326 310 173 132 103 117 79 243 352 21 328 276 228 78 10 181
314 307 313 314 311 321 322 320 315 328 327 325 8 342 319 282 350 16 330 335 332 316 6 41 52 92 147 15 326 295 236 263 318 320 131 114 93 101 173 47 321 254 19 102 94 52 62
306 308 304 309 318 320 323 324 301 306 309 292 217 261 330 289 319 313 347 322 330 340 22 74 52 93 76 41 42 21 347 13 251 236 192 149 118 113 148 178 279 4 87 271 137 26 46
313 313 300 305 313 319 321 322 290 291 304 282 168 188 253 293 216 319 303 322 335 323 348 91 79 80 79 82 65 125 225 233 279 258 55 62 102 127 152 160 214 223 146 77 125 137 122
309 307 308 295 310 316 319 311 279 281 296 273 172 170 207 267 254 23 13 304 344 333 291 348 336 23 61 75 91 181 246 248 251 186 154 114 33 165 153 199 275 170 310 62 147 187 134
304 308 306 299 294 306 311 303 273 288 299 288 192 187 253 265 264 263 292 324 349 3 21 330 15 13 36 86 135 232 201 238 204 213 181 166 151 189 103 128 273 166 62 155 144 132 129
294 298 295 302 282 294 301 294 263 286 290 280 214 203 224 255 268 260 244 241 242 241 305 331 312 44 66 109 311 325 301 353 113 245 350 147 176 181 170 207 168 137 129 133 148 133 128
Wind_Speed_850mb
32 33 34 34 35 35 36 37 39 40 41 42 43 43 43 44 44 44 42 38 39 34 32 28 20 16 11 9 13 7 6 17 22 27 34 33 24 20 9 8 12 11 21 30 36 46 20
34 35 35 36 36 37 38 39 40 42 43 43 44 45 44 45 45 45 42 39 36 35 33 22 17 10 6 7 3 3 8 16 25 31 36 36 18 8 19 8 3 22 36 45 8 4 9
35 36 37 37 38 38 39 40 41 42 44 45 45 46 45 45 45 44 41 37 33 36 25 19 11 8 14 18 6 5 4 10 20 29 35 22 9 21 16 12 23 22 13 19 8 7 8
37 37 38 39 40 41 41 43 44 44 46 47 48 48 48 46 45 43 39 34 31 27 17 7 4 11 13 1 15 11 12 21 21 23 14 11 19 13 15 20 18 12 8 9 16 23 18
37 38 40 41 42 42 43 43 44 44 46 48 48 49 49 46 44 41 34 28 28 14 5 0 1 8 9 8 29 11 20 22 11 3 7 11 7 4 5 8 11 13 5 12 19 17 11
35 37 38 40 41 42 43 44 45 46 47 48 49 49 48 45 43 39 23 27 11 7 6 13 16 13 17 31 32 21 10 12 7 6 9 2 4 7 9 10 6 10 5 9 10 17 3
36 38 41 42 42 43 44 45 46 47 48 48 49 50 48 44 39 32 17 16 16 3 30 21 15 23 23 7 33 32 12 18 22 14 6 3 9 10 22 18 17 9 1 8 12 13 6
37 38 40 42 44 45 46 47 48 48 49 50 50 51 49 42 34 15 18 15 16 23 23 37 37 49 44 19 16 35 21 21 14 11 4 10 15 24 8 7 10 14 13 12 14 13 4
37 39 40 41 43 45 47 48 49 50 50 51 51 51 50 42 21 5 18 18 24 20 10 28 29 43 30 23 40 37 38 33 10 8 11 13 15 16 13 12 12 10 14 12 15 10 9
39 40 41 42 44 46 48 49 50 51 51 51 52 50 49 44 9 15 11 11 17 27 8 14 11 15 30 21 7 36 43 30 9 20 10 13 24 14 13 14 16 7 8 5 10 5 6
39 40 42 43 46 49 50 51 52 52 52 51 50 49 45 43 35 16 10 9 13 9 6 8 13 17 25 30 5 32 50 44 17 10 6 17 11 13 12 16 9 15 4 7 3 6 6
41 42 44 45 46 49 52 54 54 54 52 53 49 46 47 41 32 4 8 12 6 9 9 7 15 13 13 18 13 11 58 34 15 9 7 19 18 9 14 7 11 10 10 14 10 6 9
42 44 46 47 48 49 51 55 57 57 54 54 50 42 44 37 20 9 11 6 8 6 12 3 8 11 14 11 9 11 19 14 9 3 8 14 12 9 10 3 12 13 14 8 9 8 11
45 45 46 48 49 51 52 54 57 58 56 57 49 44 37 29 10 13 12 8 3 9 5 12 9 12 16 12 12 18 16 13 12 9 3 3 15 7 6 13 15 11 17 12 10 6 10
48 48 47 49 50 51 53 54 56 58 55 58 50 41 25 9 12 15 8 5 11 8 8 17 8 12 8 14 12 11 18 23 19 18 14 7 11 18 26 10 17 4 5 13 13 2 6
47 48 49 48 49 50 51 54 56 56 53 55 50 38 8 22 15 12 8 9 9 9 21 6 10 8 6 8 6 9 18 10 13 22 24 11 3 10 11 14 10 8 9 6 6 8 6
47 46 47 47 48 48 48 50 54 55 51 46 39 17 12 17 18 5 5 12 11 32 36 6 6 6 6 5 5 5 16 5 3 8 20 10 7 10 9 6 0 11 8 12 10 8 10
46 45 44 45 46 45 45 46 48 54 49 37 18 8 17 33 4 3 5 9 10 36 53 6 2 1 6 5 10 9 7 8 19 6 8 3 10 5 8 5 6 7 4 9 10 5 0
46 44 42 42 42 43 41 40 41 45 49 51 36 15 20 20 4 6 13 14 20 19 16 6 8 8 8 5 5 4 6 16 23 9 7 1 5 5 16 13 14 10 9 9 10 6 7
45 41 40 39 39 41 38 37 35 34 37 35 14 7 10 3 4 3 9 11 12 26 5 8 5 8 11 7 8 1 4 10 14 12 13 11 7 9 12 7 6 6 10 7 9 6 7
37 35 37 36 35 39 34 34 31 28 27 24 6 6 13 8 8 13 7 7 10 12 17 7 7 7 4 3 8 10 12 7 14 8 9 9 7 4 2 2 3 2 10 5 6 7 7
33 34 31 32 34 38 36 32 30 23 18 6 9 11 19 19 24 11 7 6 5 8 7 6 13 19 23 11 7 1 2 6 3 8 6 7 4 4 12 13 15 9 14 12 9 3 6
33 29 32 31 35 38 38 32 27 23 12 4 6 6 6 13 16 7 6 13 18 16 22 20 15 12 16 7 16 16 12 4 2 4 4 7 9 5 3 9 9 10 12 9 13 8 5
33 29 30 31 37 37 38 29 18 18 17 9 6 11 6 7 6 6 18 20 23 32 2 14 24 12 5 11 8 5 7 7 7 4 8 8 8 5 4 8 3 8 16 30 33 19 23
34 33 26 33 33 34 33 27 13 11 16 11 6 2 5 6 12 15 31 16 32 25 7 10 9 15 8 12 8 10 9 8 12 13 13 13 10 5 8 7 9 2 4 2 9 5 7
34 32 27 28 29 29 33 25 11 10 16 9 14 3 7 6 6 16 14 15 6 9 13 8 16 9 4 9 7 5 7 9 7 4 8 9 11 10 6 9 14 8 5 9 14 7 9
35 31 29 24 24 25 28 19 12 8 14 10 20 3 4 9 10 14 8 9 12 11 5 7 13 7 8 6 4 5 8 5 6 9 9 6 3 13 6 7 10 7 6 5 9 10 32
30 31 28 25 19 25 24 17 11 9 14 15 24 9 7 9 43 30 22 10 14 12 3 15 5 14 8 6 7 8 7 9 7 8 12 14 13 8 5 4 14 17 8 5 18 30 32
26 32 30 29 22 22 24 17 11 12 18 17 18 18 15 19 22 15 25 30 23 11 15 10 3 2 3 3 1 1 4 4 2 7 10 2 11 10 13 10 3 11 32 43 37 38 22
Wind_Direction_850mb
355 355 354 354 351 352 351 349 346 345 344 342 340 338 336 333 333 332 333 333 329 325 322 318 312 315 312 275 259 273 272 197 190 199 188 173 189 201 226 215 308 214 275 293 276 256 239
354 352 351 351 350 349 349 348 346 343 342 341 339 336 335 333 331 329 331 332 327 322 317 305 311 323 270 263 197 245 256 200 193 188 180 186 195 221 281 294 188 288 304 302 252 214 233
351 350 349 349 349 348 348 346 344 342 339 338 338 336 334 332 330 328 329 330 325 322 314 291 297 298 262 236 199 267 273 186 182 179 172 191 287 262 302 307 325 301 336 329 319 347 298
348 348 347 348 348 346 346 345 342 341 338 338 337 336 334 333 330 327 329 328 325 321 314 273 275 288 252 213 214 212 161 156 149 167 216 297 324 265 225 312 348 348 52 7 299 351 300
348 349 348 348 348 347 345 343 340 339 338 337 337 336 334 334 331 327 333 329 322 326 338 120 281 289 256 195 195 184 163 140 123 262 284 318 330 51 327 61 7 7 286 324 320 335 274
349 348 348 349 347 346 346 344 343 342 340 339 338 336 335 336 333 328 349 339 353 305 296 277 255 295 218 210 191 191 158 183 191 178 233 172 34 53 34 69 213 259 323 295 284 292 277
351 349 348 347 346 345 345 345 344 344 341 340 338 337 336 337 334 329 11 25 9 339 316 259 274 245 291 223 204 202 201 224 235 193 163 238 80 201 213 190 215 222 312 283 269 264 269
347 347 346 344 343 343 344 344 343 343 341 338 338 337 336 339 333 335 3 25 8 329 299 286 261 260 257 260 227 182 206 207 165 200 154 14 230 228 232 263 247 241 254 265 278 273 57
345 345 344 342 342 341 341 341 341 340 340 337 336 337 335 341 334 6 3 33 13 349 296 289 240 235 236 217 193 187 208 204 181 199 191 173 238 203 188 254 253 227 186 223 232 323 326
342 342 342 342 341 341 340 339 339 338 338 336 333 337 334 339 354 334 49 20 8 338 41 275 198 224 221 172 241 198 199 193 205 211 195 222 264 226 230 227 179 186 214 300 332 27 243
339 339 339 340 340 339 339 338 338 337 335 334 330 333 328 328 322 320 303 316 319 337 7 165 169 175 184 176 198 193 204 200 213 225 127 252 298 225 227 203 154 228 205 246 206 61 64
338 337 337 337 337 337 337 337 336 336 335 330 327 331 320 321 320 287 298 277 326 50 261 223 168 153 130 202 240 149 186 203 248 197 217 249 258 235 210 178 176 141 64 39 44 57 6
335 335 334 334 334 335 335 334 334 333 334 327 326 325 312 307 305 269 328 327 50 155 303 195 191 144 169 170 227 168 172 209 177 99 317 325 296 279 230 108 17 79 60 7 357 15 224
330 330 330 331 332 333 334 334 332 332 332 325 326 323 305 299 253 226 245 59 205 260 275 300 161 149 180 188 236 172 152 200 259 125 88 235 322 192 203 166 179 182 144 151 190 201 257
328 327 327 327 328 330 332 332 333 332 334 326 329 329 314 170 167 167 148 106 214 237 335 325 3 147 250 216 194 155 182 201 202 170 167 192 267 284 159 145 127 194 178 180 108 321 74
324 324 324 325 325 326 329 330 332 332 336 331 332 336 63 152 133 146 81 233 259 293 319 339 52 48 75 349 22 176 193 231 196 197 160 219 274 335 29 71 29 138 171 68 9 127 182
320 322 322 322 322 324 327 330 332 332 338 337 334 331 142 171 159 181 171 238 284 285 299 353 28 343 32 15 235 280 212 21 138 130 142 155 109 296 39 80 194 352 357 60 116 116 159
316 318 319 320 320 322 326 330 333 334 339 339 352 330 145 164 225 210 196 215 294 295 303 289 110 296 19 8 352 34 23 30 343 145 107 22 132 137 205 262 245 166 9 118 113 237 95
313 314 317 318 320 320 323 327 333 337 342 348 336 290 208 244 189 268 288 287 287 280 254 93 30 35 28 323 68 35 30 9 39 61 130 256 28 49 341 358 6 48 16 48 102 86 195
313 319 317 317 317 316 321 324 328 333 334 342 336 341 318 222 98 44 347 290 312 331 105 116 111 46 38 354 4 327 117 24 35 61 72 98 81 140 185 177 211 334 331 64 97 105 208
307 317 326 326 323 320 324 321 323 326 329 334 327 290 5 323 331 329 283 273 317 351 339 82 37 23 264 333 41 4 12 28 20 23 36 82 95 60 99 151 344 271 297 344 141 181 156
308 315 316 319 323 325 325 322 321 323 330 346 357 357 344 302 305 341 312 286 290 318 357 334 93 66 64 80 40 294 172 39 53 326 65 14 171 102 355 20 22 324 297 295 259 153 129
316 314 316 316 317 317 321 320 323 325 325 289 342 290 316 298 328 355 41 315 318 301 47 52 137 97 60 357 338 310 318 326 310 173 132 103 117 79 243 352 21 328 276 228 78 10 181
314 307 313 314 311 321 322 320 315 328 327 325 8 342 319 282 350 16 330 335 332 316 6 41 52 92 147 15 326 295 236 263 318 320 131 114 93 101 173 47 321 254 19 102 94 52 62
306 308 304 309 318 320 323 324 301 306 309 292 217 261 330 289 319 313 347 322 330 340 22 74 52 93 76 41 42 21 347 13 251 236 192 149 118 113 148 178 279 4 87 271 137 26 46
313 313 300 305 313 319 321 322 290 291 304 282 168 188 253 293 216 319 303 322 335 323 348 91 79 80 79 82 65 125 225 233 279 258 55 62 102 127 152 160 214 223 146 77 125 137 122
309 307 308 295 310 316 319 311 279 281 296 273 172 170 207 267 254 23 13 304 344 333 291 348 336 23 61 75 91 181 246 248 251 186 154 114 33 165 153 199 275 170 310 62 147 187 134
304 308 306 299 294 306 311 303 273 288 299 288 192 187 253 265 264 263 292 324 349 3 21 330 15 13 36 86 135 232 201 238 204 213 181 166 151 189 103 128 273 166 62 155 144 132 129
294 298 295 302 282 294 301 294 263 286 290 280 214 203 224 255 268 260 244 241 242 241 305 331 312 44 66 109 311 325 301 353 113 245 350 147 176 181 170 207 168 137 129 133 148 133 128